Regional Weather Roundup
Issued by NWS

Home | Current Version | Previous Version | Graphics & Text | Print | Product List | Glossary Off
Versions: 1 2 3 4 5 6 7 8 9 10 11 12 13 14 15 16 17 18 19 20 21 22 23 24 25 26 27 28 29 30 31 32 33 34 35 36 37 38 39 40 41 42 43 44 45 46 47 48 49 50

919
ASUS43 KTOP 120459
RWRKS

WEATHER ROUNDUP FOR KANSAS
NATIONAL WEATHER SERVICE GOODLAND KS
1100 PM CST THU FEB 11 2016

NOTE:  "FAIR" INDICATES FEW OR NO CLOUDS BELOW 12,000 FEET WITH NO
SIGNIFICANT WEATHER AND/OR OBSTRUCTIONS TO VISIBILITY.

KSZ001>006-013>018-027>032-041>047-120600-
NORTHWEST KANSAS

CITY           SKY/WX    TMP DP  RH WIND       PRES   REMARKS
GOODLAND       CLOUDY    35  28  75 W9        30.23R
HAYS           CLEAR     32  21  64 W7        30.16S
HILL CITY      CLEAR     34  30  85 W7        30.17R
RUSSELL        CLOUDY    31  27  85 SW8       30.15S
$$

KSZ061>065-074>080-084>089-120600-
SOUTHWEST KANSAS

CITY           SKY/WX    TMP DP  RH WIND       PRES   REMARKS
DODGE CITY     CLEAR     39  27  62 NW6       30.19S
ELKHART          N/A     44  23  43 N7          N/A
GARDEN CITY    CLOUDY    37  28  70 N9        30.20R
GREAT BEND     CLEAR     30  21  69 SW6       30.17S
LIBERAL        CLOUDY    43  25  49 N7        30.20R
$$

KSZ066>073-081>083-090>101-120600-
SOUTHEAST KANSAS

CITY           SKY/WX    TMP DP  RH WIND       PRES   REMARKS
CHANUTE        CLEAR     28  23  81 S5        30.19F
COFFEYVILLE    CLEAR     31  24  75 N5        30.22R
HUTCHINSON     CLEAR     30  23  75 E3        30.18R
MEDICINE LODGE   N/A     34  28  79 NE3       30.19R
NEWTON         CLOUDY    34  21  60 SW5       30.18S
PARSONS        CLEAR     26  22  84 CALM      30.20F
WICHITA INTL   PTCLDY    35  26  69 CALM      30.18R
WICHITA JABRA  CLEAR     35  25  66 SW5       30.17S
WINFIELD       CLEAR     30  23  75 CALM      30.19F
$$

KSZ007>012-019>026-033>040-048>060-102>105-120600-
NORTHEAST KANSAS

CITY           SKY/WX    TMP DP  RH WIND       PRES   REMARKS
CONCORDIA      CLOUDY    28  24  85 CALM      30.18R
EMPORIA        CLOUDY    28  22  78 S10       30.16F WCI  19
LAWRENCE       PTCLDY    29  22  75 CALM      30.17F
MANHATTAN      CLEAR     29  24  82 CALM      30.17S
OLATHE IND     PTCLDY    30  22  72 SE5       30.16F
OLATHE EXE     MOCLDY    30  21  69 SE5       30.16F
SALINA         CLOUDY    30  24  78 SW6       30.17S HAZE
TOPEKA BILLARD CLOUDY    34  22  61 S3        30.16F
TOPEKA FORBES  CLEAR     31  22  69 S6        30.15F
$$




USA.gov is the U.S. government's official web portal to all federal, state and local government web resources and services.